INTELSAT 902 (IS-902) 1 26900U 01039A 26237.16697186 -.00000286 00000+0 00000+0 0 9999 2 26900 6.2859 70.9128 0004177 81.8924 190.6426 1.00272783 91386 INTELSAT 904 (IS-904) 1 27380U 02007A 26236.89751373 -.00000228 00000+0 00000+0 0 9992 2 27380 7.0857 68.3341 0003448 67.3095 129.1472 1.00271627 52451 DIRECTV 5 (TEMPO 1) 1 27426U 02023A 26237.16185365 -.00000060 00000+0 00000+0 0 9998 2 27426 5.0475 74.4229 0003306 80.1323 127.0490 1.00272312 88817 INTELSAT 905 (IS-905) 1 27438U 02027A 26237.20770331 .00000091 00000+0 00000+0 0 9996 2 27438 6.9206 68.9415 0002978 95.7322 106.3794 1.00272195 52055 GALAXY 3C (G-3C) 1 27445U 02030A 26237.22058824 -.00000156 00000+0 00000+0 0 9999 2 27445 3.9095 77.0921 0001785 37.6396 203.3146 1.00272086 47186 INTELSAT 906 (IS-906) 1 27513U 02041A 26237.13025465 .00000010 00000+0 00000+0 0 9990 2 27513 5.9720 72.0445 0002494 81.5200 290.8743 1.00271513 87727 GALAXY 13 (HORIZONS-1) 1 27954U 03044A 26237.29359757 .00000130 00000+0 00000+0 0 9997 2 27954 1.5920 82.9029 0002026 70.8963 135.4323 1.00271733 47263 INTELSAT 10-02 1 28358U 04022A 26237.18866823 -.00000014 00000+0 00000+0 0 9990 2 28358 0.0585 269.2072 0000223 245.8240 245.3532 1.00272428 81241 DIRECTV 8 1 28659U 05019A 26235.13752979 -.00000001 00000+0 00000+0 0 9996 2 28659 0.0170 100.4098 0003257 59.0133 102.4690 1.00272249 77744 GALAXY 28 (G-28) 1 28702U 05022A 26237.18346821 -.00000203 00000+0 00000+0 0 9995 2 28702 3.4701 78.0505 0002480 66.9616 227.3945 1.00273841 52666 GALAXY 16 (G-16) 1 29236U 06023A 26237.26711253 -.00000129 00000+0 00000+0 0 9991 2 29236 0.0167 177.6234 0002940 333.0297 180.0355 1.00270475 73660 DIRECTV 9S 1 29494U 06043A 26237.26711253 -.00000116 00000+0 00000+0 0 9995 2 29494 2.5922 80.0265 0004135 60.2013 188.2657 1.00271675 52076 GALAXY 17 (G-17) 1 31307U 07016B 26237.26155740 -.00000209 00000+0 00000+0 0 9998 2 31307 3.1390 78.9938 0002649 88.2788 175.4232 1.00272090 70493 INTELSAT 11 (IS-11) 1 32253U 07044B 26237.22489506 -.00000147 00000+0 00000+0 0 9997 2 32253 3.7384 77.7916 0006540 116.7407 41.9809 0.99052522 69134 HORIZONS-2 1 32388U 07063B 26237.03167348 -.00000256 00000+0 00000+0 0 9994 2 32388 2.7728 79.7414 0002459 53.0985 138.0507 1.00269484 68501 DIRECTV 11 1 32729U 08013A 26237.26711253 .00000000 00000+0 00000+0 0 9990 2 32729 0.0124 113.5262 0000305 328.9522 248.0433 1.00270440 46283 GALAXY 18 (G-18) 1 32951U 08024A 26237.27267065 .00000022 00000+0 00000+0 0 9991 2 32951 0.0134 121.2829 0003203 36.7630 150.6541 1.00272930 46543 GALAXY 19 (G-19) 1 33376U 08045A 26237.26711253 -.00000142 00000+0 00000+0 0 9992 2 33376 0.0642 264.5956 0002598 247.4788 180.6170 1.00270823 65598 FM-5 1 35493U 09034A 26237.26155740 -.00000203 00000+0 00000+0 0 9994 2 35493 0.0562 276.4534 0001034 147.0069 278.0699 1.00271156 47336 INTELSAT 14 (IS-14) 1 36097U 09064A 26237.24150420 -.00000276 00000+0 00000+0 0 9996 2 36097 0.0858 85.8314 0002743 80.0864 209.5325 1.00270740 61294 INTELSAT 15 (IS-15) 1 36106U 09067A 26237.13441468 -.00000188 00000+0 00000+0 0 9995 2 36106 0.0096 173.0164 0002394 337.2702 316.6470 1.00271210 41924 DIRECTV 12 1 36131U 09075A 26237.26711253 -.00000106 00000+0 00000+0 0 9998 2 36131 0.0088 66.7599 0000198 168.5643 91.6498 1.00272449 47248 INTELSAT 16 (IS-16) 1 36397U 10006A 26237.27892053 .00000000 00000+0 00000+0 0 9999 2 36397 0.0263 106.1251 0002431 58.4455 193.1894 1.00268025 60340 XM-5 1 37185U 10053A 26237.21383616 -.00000026 00000+0 00000+0 0 9990 2 37185 0.0705 274.6853 0000452 272.0200 108.5620 1.00271924 58176 INTELSAT 17 (IS-17) 1 37238U 10065B 26237.13060132 -.00000004 00000+0 00000+0 0 9994 2 37238 0.0164 100.5039 0002451 59.5459 286.3516 1.00272197 53933 INTELSAT 28 (IS-28) 1 37392U 11016A 26237.27621944 -.00000228 00000+0 00000+0 0 9999 2 37392 1.9779 81.7243 0003947 77.8392 241.7532 1.00271564 53977 INTELSAT 18 (IS-18) 1 37834U 11056A 26237.24975216 .00000050 00000+0 00000+0 0 9997 2 37834 0.0360 264.1958 0002126 242.3356 96.8908 1.00271200 54504 INTELSAT 22 (IS-22) 1 38098U 12011A 26237.17961459 -.00000061 00000+0 00000+0 0 9991 2 38098 0.0139 104.8953 0001787 53.4872 311.8187 1.00271444 7880 INTELSAT 19 (IS-19) 1 38356U 12030A 26237.23080544 .00000000 00000+0 00000+0 0 9995 2 38356 0.0204 122.1537 0003234 35.3216 65.1222 1.00267978 51145 INTELSAT 20 (IS-20) 1 38740U 12043A 26237.03983571 -.00000027 00000+0 00000+0 0 9996 2 38740 0.0189 123.3931 0001431 42.6232 250.1262 1.00270768 51434 INTELSAT 21 (IS-21) 1 38749U 12045A 26237.03479350 .00000000 00000+0 00000+0 0 9992 2 38749 0.0283 118.0683 0002254 46.6183 123.1685 1.00273204 51218 INTELSAT 23 (IS-23) 1 38867U 12057A 26237.16222204 -.00000287 00000+0 00000+0 0 9992 2 38867 0.0317 265.0812 0000841 293.2652 140.4973 1.00276289 50649 FM-6 1 39360U 13058A 26237.21344178 -.00000019 00000+0 00000+0 0 9997 2 39360 0.0049 116.6624 0000972 113.4983 63.8055 1.00272628 46767 INTELSAT 30 (IS-30) 1 40271U 14062A 26236.52849046 -.00000154 00000+0 00000+0 0 9993 2 40271 0.0147 74.9654 0001885 331.0784 21.9755 1.00271819 7477 DIRECTV 14 1 40333U 14078B 26237.02664681 -.00000128 00000+0 00000+0 0 9996 2 40333 0.0136 71.5953 0000615 351.1862 180.8715 1.00273384 42737 DIRECTV 15 1 40663U 15026A 26237.26711253 -.00000105 00000+0 00000+0 0 9995 2 40663 0.0160 108.6459 0000277 9.6570 208.5098 1.00270059 41151 SKY MEXICO-1 1 40664U 15026B 26237.24452384 .00000000 00000+0 00000+0 0 9994 2 40664 0.0262 116.3051 0002782 51.2769 175.1632 1.00268372 41142 INTELSAT 34 (IS-34) 1 40874U 15039A 26237.03531351 -.00000288 00000+0 00000+0 0 9999 2 40874 0.0046 48.0064 0000599 357.7495 244.7701 1.00271323 40323 INTELSAT 31 (IS-31) 1 41581U 16035A 26236.52849046 -.00000154 00000+0 00000+0 0 9990 2 41581 0.0425 264.0233 0001400 72.8610 91.1433 1.00272100 37364 INTELSAT 36 (IS-36) 1 41747U 16053A 26237.13112132 -.00000027 00000+0 00000+0 0 9990 2 41747 0.0164 74.9380 0001671 281.4604 92.7093 1.00271287 36644 INTELSAT 32E (IS-32E) 1 41945U 17007B 26237.25152618 -.00000272 00000+0 00000+0 0 9998 2 41945 0.0321 255.0183 0000747 174.8084 311.0657 1.00270509 34919 INTELSAT 35E (IS-35E) 1 42818U 17041A 26237.26422293 .00000000 00000+0 00000+0 0 9994 2 42818 0.0222 130.9092 0002090 39.6122 223.6434 1.00269560 33503 INTELSAT 37E (IS-37E) 1 42950U 17059A 26237.18528822 -.00000144 00000+0 00000+0 0 9996 2 42950 0.0158 178.1304 0003410 344.8129 219.2104 1.00271144 32755 AZERSPACE 2 (IS-38) 1 43632U 18074A 26237.19776828 .00000000 00000+0 00000+0 0 9994 2 43632 0.0240 125.6258 0001562 22.9701 301.1754 1.00270502 29133 HORIZONS-3E 1 43633U 18074B 26237.27247049 -.00000033 00000+0 00000+0 0 9999 2 43633 0.0239 222.1440 0000750 295.3598 83.1022 1.00271798 29038 AT&T T-16 1 44333U 19034A 26237.26711253 -.00000118 00000+0 00000+0 0 9990 2 44333 0.0140 98.8020 0000629 335.3616 254.6669 1.00269263 26325 INTELSAT 39 (IS-39) 1 44476U 19049B 26237.20114830 .00000000 00000+0 00000+0 0 9995 2 44476 0.0214 132.6903 0000380 309.6475 25.4956 1.00268194 25822 GALAXY 30 (G-30) 1 46114U 20056C 26237.27267065 .00000034 00000+0 00000+0 0 9999 2 46114 0.0178 109.0988 0002328 42.5900 155.0143 1.00271428 21988 GALAXY 33 (G-33) 1 54026U 22128A 26237.24263142 .00000076 00000+0 00000+0 0 9997 2 54026 0.0207 92.6131 0001992 58.1154 137.1393 1.00274050 14433 GALAXY 34 (G-34) 1 54027U 22128B 26236.94950786 .00000000 00000+0 00000+0 0 9998 2 54027 0.0186 117.9188 0001831 44.1617 23.9752 1.00274794 14609 GALAXY 31 (G-31) 1 54243U 22153A 26237.27267065 .00000010 00000+0 00000+0 0 9995 2 54243 0.0066 129.4156 0001444 17.2308 164.0590 1.00272622 7828 GALAXY 32 (G-32) 1 54244U 22153B 26237.26155740 .00000000 00000+0 00000+0 0 9990 2 54244 0.0213 108.7334 0000683 331.0950 256.8645 1.00268555 13834 GALAXY 35 (G-35) 1 54741U 22170A 26237.30499551 -.00000165 00000+0 00000+0 0 9990 2 54741 0.0122 135.7189 0002242 17.5820 196.9635 1.00270970 13587 GALAXY 36 (G-36) 1 54742U 22170B 26237.24253050 -.00000188 00000+0 00000+0 0 9991 2 54742 0.0276 207.4201 0002471 270.9052 213.4947 1.00271628 13465 GALAXY 37 (G-37) 1 57493U 23112A 26236.29975330 .00000045 00000+0 00000+0 0 9991 2 57493 0.0307 252.2873 0002081 261.0603 160.1484 1.00271546 11224